We konden geen weer-waarchuwingen ophalen. Ga rechtstreeks naar de Meteoalarm site : www.meteoalarm.eu en controleer daar .



Onweer radar Meer informatie blitzortung!


Regen radar Meer informatie rain snow radar


Bezoek onze andere website:

Template documentation
and downloads

And another site



15 daagse weersverwachting Padova (IT)

  • Overzicht
  • Per uur
  • 15 dagen
  • Extra
  • Vergelijk
  • Kaarten
  • Dagkaart
  • Meer »
  • Info
  • Statistieken
  • Directe link
    Temp 6h Neerslag Wind  
 06:17     20:16    Daglengte: 13:59 Vandaag
14:00
32°
 
4
20:00
29°
 
3
 06:19     20:15    Daglengte: 13:56 Morgen
02:00
24°
 
3
08:00
24°
 
3
14:00
26°
4.0 mm
5
warningclass
20:00
23°
5.5 mm
4
 06:20     20:13    Daglengte: 13:53 Vrijdag 19 Aug
02:00
21°
6.2 mm
2
08:00
20°
30.2 mm
3
14:00
22°
23.5 mm
2
20:00
24°
 
1
 06:21     20:11    Daglengte: 13:50 Zaterdag 20 Aug
02:00
21°
 
1
08:00
21°
 
1
Locatie info
Region: Veneto
Latitude: 45.4094°N
Longitude: 11.8717°E
18 masl
Postcode: 35139
Temp/Neerslag /Baro Onweer/Dauwpunt
    Temp Baro 1h Neerslag Dauwpunt Wind UV Bewolking  
 06:17     20:16    Daglengte: 13:59 Vandaag
12:00
30°
1013.1 hPa   20.5°
2
Windvlaag: -0.6 m/s
15%
13:00
31°
1012.7 hPa   20.6°
3
Windvlaag: 1.7 m/s
42%
14:00
32°
1012.3 hPa   20.3°
4
Windvlaag: 3.2 m/s
43%
15:00
32°
1012.0 hPa   20.8°
4
Windvlaag: 3.7 m/s
39%
16:00
32°
1011.5 hPa   21.2°
5
Windvlaag: 4.4 m/s
59%
17:00
31°
1011.0 hPa   21.1°
4
Windvlaag: 4.6 m/s
44%
18:00
31°
1010.9 hPa   20.5°
4
Windvlaag: 4.3 m/s
51%
19:00
30°
1010.9 hPa   20.2°
4
Windvlaag: 4.2 m/s
58%
20:00
29°
1010.9 hPa   21.5°
3
Windvlaag: 5.2 m/s
57%
21:00
27°
1011.0 hPa   22.8°
3
Windvlaag: 3.3 m/s
39%
22:00
26°
1011.2 hPa   23.4°
3
Windvlaag: 4.1 m/s
37%
23:00
26°
1011.6 hPa   23.8°
3
Windvlaag: 3.7 m/s
32%
 06:19     20:15    Daglengte: 13:56 Morgen
00:00
25°
1011.8 hPa
12%
23.6°
2
Windvlaag: 4.4 m/s
20%
01:00
25°
1011.5 hPa
14%
23.4°
2
Windvlaag: 3.6 m/s
21%
02:00
24°
1011.3 hPa
14%
23.0°
3
Windvlaag: 0.3 m/s
15%
03:00
24°
1010.9 hPa
14%
22.4°
3
Windvlaag: 0.2 m/s
56%
04:00
24°
1010.9 hPa
14%
22.0°
3
Windvlaag: -0.7 m/s
75%
05:00
24°
1010.5 hPa
21%
21.7°
3
Windvlaag: -1.2 m/s
55%
06:00
24°
1010.3 hPa
82%
21.3°
4
Windvlaag: -1.4 m/s
84%
07:00
24°
1010.6 hPa
25%
21.0°
3
Windvlaag: -0 m/s
83%
08:00
24°
1010.9 hPa
82%
20.7°
3
Windvlaag: 1.2 m/s
81%
09:00
25°
1010.9 hPa
82%
19.8°
3
Windvlaag: 0.6 m/s
82%
10:00
26°
1010.9 hPa 0.6 mm
82%
20.5°
4
Windvlaag: -2.1 m/s
81% warningclass
11:00
26°
1010.8 hPa
82%
20.5°
4
Windvlaag: -2.4 m/s
71%
12:00
26°
1010.8 hPa 0.6 mm
82%
18.8°
4
Windvlaag: -1.9 m/s
86% warningclass
13:00
26°
1010.5 hPa
82%
18.7°
5
Windvlaag: -3.6 m/s
76%
14:00
26°
1010.5 hPa 2.8 mm
81%
19.0°
5
Windvlaag: -4.2 m/s
86% warningclass
15:00
25°
1010.0 hPa
74%
18.9°
4
Windvlaag: -2.7 m/s
86% warningclass
16:00
25°
1010.3 hPa
78%
18.7°
5
Windvlaag: -5.4 m/s
86%
17:00
24°
1009.4 hPa 2.3 mm
79%
18.6°
4
Windvlaag: -3.7 m/s
84%
18:00
24°
1009.1 hPa
79%
20.6°
4
Windvlaag: -4.2 m/s
83%
19:00
23°
1008.7 hPa 3.2 mm
82%
20.7°
3
Windvlaag: -3.2 m/s
71%
20:00
23°
1008.4 hPa
82%
20.3°
4
Windvlaag: -3.8 m/s
71%
21:00
23°
1008.5 hPa
82%
20.1°
3
Windvlaag: -3.6 m/s
66%
22:00
22°
1008.2 hPa
80%
20.2°
2
Windvlaag: -2 m/s
48%
23:00
22°
1008.7 hPa
76%
20.0°
2
Windvlaag: 1.6 m/s
20%
 06:20     20:13    Daglengte: 13:53 Vrijdag 19 Aug
00:00
22°
1008.4 hPa
37%
19.8°
3
Windvlaag: 1 m/s
66%
01:00
22°
1007.9 hPa
38%
19.4°
3
Windvlaag: -4 m/s
86%
02:00
21°
1007.8 hPa 6.2 mm
82%
19.2°
2
Windvlaag: -2.2 m/s
86%
03:00
21°
1007.6 hPa 5.4 mm
82%
19.4°
2
Windvlaag: -2 m/s
86% warningclass
04:00
21°
1006.8 hPa 3.8 mm
82%
19.4°
2
Windvlaag: 0.6 m/s
55%
05:00
20°
1006.9 hPa 6.1 mm
100%
16.7°
3
Windvlaag: -0.5 m/s
64% warningclass
06:00
20°
1007.2 hPa 4.5 mm
100%
16.6°
2
Windvlaag: -1.8 m/s
97% warningclass
07:00
20°
1008.2 hPa 5.9 mm
100%
16.7°
3
Windvlaag: -2.2 m/s
100% warningclass
08:00
20°
1008.4 hPa 4.4 mm
100%
17.6°
3
Windvlaag: -3.4 m/s
100%
09:00
20°
1008.7 hPa 2.9 mm
100%
16.8°
2
Windvlaag: -4.7 m/s
99%
10:00
21°
1008.9 hPa 2.8 mm
100%
16.5°
3
Windvlaag: -5.1 m/s
99%
11:00
21°
1009.3 hPa 3.7 mm
100%
16.7°
2
Windvlaag: -3.8 m/s
99%
12:00
22°
1009.6 hPa 6.0 mm
54%
16.0°
2
Windvlaag: -1.5 m/s
100% warningclass
13:00
22°
1009.6 hPa 3.0 mm
100%
17.6°
3
Windvlaag: -0.2 m/s
100% warningclass
14:00
22°
1009.5 hPa 5.0 mm
100%
16.3°
2
Windvlaag: 1.1 m/s
92%
15:00
24°
1009.1 hPa
90%
15.8°
3
Windvlaag: -1.6 m/s
76%
16:00
25°
1008.6 hPa
35%
12.3°
2
Windvlaag: -1.7 m/s
66%
17:00
25°
1008.9 hPa
82%
10.6°
2
Windvlaag: -1.1 m/s
62%
18:00
25°
1008.6 hPa
80%
10.2°
1
Windvlaag: -0.9 m/s
56%
19:00
25°
1008.7 hPa
29%
10.4°
1
Windvlaag: -1.1 m/s
61%
20:00
24°
1008.8 hPa
24%
13.0°
1
Windvlaag: -0.5 m/s
19%
21:00
23°
1009.4 hPa
21%
13.4°
1
Windvlaag: 1.1 m/s
35%
22:00
23°
1009.8 hPa
21%
14.1°
1
Windvlaag: 0.8 m/s
51%
23:00
22°
1010.1 hPa
21%
14.2°
1
Windvlaag: 0.9 m/s
18%
 06:21     20:11    Daglengte: 13:50 Zaterdag 20 Aug
00:00
21°
1009.9 hPa
21%
14.4°
2
Windvlaag: 3.2 m/s
16%
01:00
21°
1009.9 hPa
21%
13.2°
2
Windvlaag: 6 m/s
2%
02:00
21°
1009.9 hPa
21%
12.3°
1
Windvlaag: 7.1 m/s
2%
03:00
20°
1010.1 hPa
21%
13.0°
1
Windvlaag: 8.9 m/s
58%
04:00
20°
1010.3 hPa
21%
12.7°
1
Windvlaag: 6.3 m/s
19%
05:00
20°
1010.4 hPa
21%
11.5°
1
Windvlaag: 2.8 m/s
20%
06:00
20°
1010.7 hPa
21%
11.2°
1
Windvlaag: 2.6 m/s
5%
07:00
20°
1011.2 hPa
21%
9.7°
1
Windvlaag: 1.7 m/s
6%
08:00
21°
1011.7 hPa
21%
10.7°
1
Windvlaag: 2.1 m/s
8%
09:00
25°
1012.7 hPa 14.1 mm
100%
12.6°
1
Windvlaag: 3.8 m/s
23%
10:00
27°
Voelt als: 26.7°
1012.4 hPa 14.1 mm
100%
11.7°
1
Windvlaag: 5 m/s
2%
11:00
28°
Voelt als: 27.5°
1012.5 hPa 14.1 mm
100%
11.9°
1
Windvlaag: 5.6 m/s
2%
Temp/Neerslag /Baro Onweer/Dauwpunt
    Temp Baro Neerslag Dauwpunt Wind Bewolking  
 06:17     20:16    Daglengte: 13:59 Vandaag
14:00
32°
1012.3 hPa   20.3°
4
43%
17:00
31°
1011.0 hPa   21.1°
4
44%
20:00
29°
1010.9 hPa   21.5°
3
57%
23:00
26°
1011.6 hPa   23.8°
3
32%
 06:19     20:15    Daglengte: 13:56 Morgen
02:00
24°
1011.3 hPa   23.0°
3
15%
05:00
24°
1010.5 hPa   21.7°
3
55%
08:00
24°
1010.9 hPa   20.7°
3
81%
11:00
26°
1010.8 hPa 0.6 mm 20.5°
4
71% warningclass
14:00
26°
1010.5 hPa 3.4 mm 19.0°
5
86% warningclass
17:00
24°
1009.4 hPa 2.3 mm 18.6°
4
84%
20:00
23°
1008.4 hPa 3.2 mm 20.3°
4
71%
23:00
22°
1008.7 hPa   20.0°
2
20%
 06:20     20:13    Daglengte: 13:53 Vrijdag 19 Aug
02:00
21°
1007.8 hPa 6.2 mm 19.2°
2
86%
05:00
20°
1006.9 hPa 15.4 mm 16.7°
3
64% warningclass
08:00
20°
1008.4 hPa 14.9 mm 17.6°
3
100%
11:00
21°
1009.3 hPa 9.5 mm 16.7°
2
99%
14:00
22°
1009.5 hPa 14.0 mm 16.3°
2
92%
17:00
25°
1008.9 hPa   10.6°
2
62%
20:00
24°
1008.8 hPa   13.0°
1
19%
23:00
22°
1010.1 hPa   14.2°
1
18%
 06:21     20:11    Daglengte: 13:50 Zaterdag 20 Aug
02:00
21°
1009.9 hPa   12.3°
1
2%
05:00
20°
1010.4 hPa   11.5°
1
20%
08:00
21°
1011.7 hPa   10.7°
1
8%
11:00
28°
Voelt als: 27.5°
1012.5 hPa 42.4 mm 11.9°
1
2%
14:00
31°
Voelt als: 29.9°
1012.0 hPa 42.4 mm 10.1°
3
6%
17:00
32°
Voelt als: 30.5°
1011.7 hPa 19.6 mm 12.0°
2
0%
20:00
25°
1012.1 hPa 19.6 mm 13.6°
2
0%
23:00
22°
1013.3 hPa 19.6 mm 15.4°
1
0%
 06:22     20:09    Daglengte: 13:47 Zondag 21 Aug
02:00
20°
1013.9 hPa 19.6 mm 14.4°
2
0%
05:00
19°
1013.8 hPa 19.6 mm 13.7°
2
0%
08:00
22°
1014.1 hPa 19.6 mm 14.1°
1
0%
11:00
28°
Voelt als: 27.9°
1013.9 hPa 19.6 mm 14.6°
2
0%
14:00
31°
Voelt als: 30.6°
1012.5 hPa 19.6 mm 14.3°
2
0%
17:00
32°
Voelt als: 30.6°
1010.8 hPa 19.6 mm 12.8°
3
0%
20:00
25°
1010.7 hPa 19.8 mm 16.1°
4
1%
23:00
22°
1011.3 hPa 20.0 mm 16.2°
2
1%
 06:23     20:08    Daglengte: 13:45 Maandag 22 Aug
02:00
19°
1011.4 hPa 20.4 mm 17.6°
3
1%
05:00
19°
1011.8 hPa 20.9 mm 17.1°
3
1%
08:00
20°
1012.7 hPa 21.1 mm 18.0°
2
1%
11:00
25°
1012.9 hPa 21.1 mm 19.8°
3
1%
14:00
28°
Voelt als: 28.3°
1012.5 hPa 21.2 mm 14.6°
4
1%
17:00
29°
Voelt als: 28.1°
1011.3 hPa 21.2 mm 12.9°
3
1%
20:00
24°
1011.4 hPa 21.2 mm 13.7°
1
1%
23:00
22°
1012.3 hPa 21.2 mm 14.5°
2
1%
 06:25     20:06    Daglengte: 13:41 Dinsdag 23 Aug
02:00
20°
1012.3 hPa 21.2 mm 14.0°
2
1%
05:00
19°
1012.5 hPa 21.2 mm 13.0°
1
1%
08:00
22°
1013.6 hPa 21.2 mm 13.0°
1
1%
11:00
29°
Voelt als: 28.3°
1013.4 hPa 21.2 mm 13.1°
1
1%
14:00
32°
Voelt als: 30.1°
1012.5 hPa 21.2 mm 9.8°
3
1%
17:00
32°
Voelt als: 29.9°
1011.8 hPa 21.2 mm 8.6°
3
0%
20:00
26°
1012.3 hPa 21.2 mm 8.7°
2
0%
23:00
23°
1013.3 hPa 21.2 mm 11.4°
1
0%
 06:26     20:04    Daglengte: 13:38 Woensdag 24 Aug
02:00
21°
1013.6 hPa 21.2 mm 13.3°
2
0%
05:00
20°
1013.6 hPa 21.2 mm 13.8°
2
0%
08:00
22°
1013.8 hPa 21.2 mm 13.9°
2
0%
11:00
30°
Voelt als: 29.1°
1013.9 hPa   13.5°
1
1%
14:00
33°
Voelt als: 31.7°
1012.7 hPa 42.3 mm 11.5°
1
1%
20:00
27°
Voelt als: 26.5°
1012.0 hPa 42.3 mm 10.7°
2
1%
 06:27     20:02    Daglengte: 13:35 Donderdag 25 Aug
02:00
22°
1013.5 hPa 42.3 mm 12.7°
2
0%
08:00
23°
1013.8 hPa 42.3 mm 13.6°
1
0%
14:00
34°
Voelt als: 32.8°
1013.2 hPa 42.3 mm 10.9°
2
0%
20:00
28°
Voelt als: 27.4°
1012.7 hPa 42.3 mm 12.5°
2
1%
 06:28     20:01    Daglengte: 13:33 Vrijdag 26 Aug
02:00
23°
1014.7 hPa 42.3 mm 15.1°
2
0%
08:00
24°
1015.4 hPa 42.3 mm 14.5°
1
0%
14:00
36°
Voelt als: 34.8°
1014.1 hPa 42.3 mm 12.7°
1
0%
20:00
29°
Voelt als: 28.0°
1013.4 hPa 42.3 mm 10.6°
3
0%
 06:29     19:59    Daglengte: 13:30 Zaterdag 27 Aug
02:00
24°
1015.4 hPa 42.3 mm 12.2°
2
1%
08:00
24°
1017.2 hPa   14.5°
2
22%
14:00
34°
Voelt als: 33.0°
1016.0 hPa   12.5°
2
21%
20:00
28°
Voelt als: 27.3°
1016.3 hPa 0.1 mm 12.7°
2
29%
 06:31     19:57    Daglengte: 13:26 Zondag 28 Aug
02:00
23°
1018.3 hPa 0.4 mm 13.8°
2
24%
08:00
24°
1018.6 hPa 0.2 mm 14.3°
2
24%
14:00
34°
Voelt als: 32.8°
1017.8 hPa   13.2°
2
17%
20:00
27°
Voelt als: 27.1°
1017.6 hPa 0.2 mm 13.1°
2
28%
 06:32     19:55    Daglengte: 13:23 Maandag 29 Aug
02:00
23°
1019.3 hPa 0.7 mm 14.5°
2
35%
08:00
23°
1019.4 hPa 0.3 mm 15.1°
1
33%
14:00
34°
Voelt als: 32.9°
1018.2 hPa   13.3°
2
18%
20:00
27°
Voelt als: 27.2°
1017.6 hPa 0.2 mm 13.5°
2
16%
 06:33     19:53    Daglengte: 13:20 Dinsdag 30 Aug
02:00
23°
1019.0 hPa 1.0 mm 14.9°
2
37%
08:00
23°
1018.8 hPa 0.3 mm 15.3°
1
33%
14:00
33°
Voelt als: 32.3°
1017.3 hPa 0.1 mm 13.3°
2
28%
20:00
27°
1016.5 hPa 0.2 mm 13.6°
2
35%
 06:34     19:52    Daglengte: 13:18 Woensdag 31 Aug
02:00
23°
1017.9 hPa 0.7 mm 14.8°
2
42%
08:00
23°
1017.4 hPa 0.5 mm 14.9°
2
42%
14:00
33°
Voelt als: 31.8°
1015.9 hPa 0.2 mm 13.3°
2
32%
20:00
26°
1015.3 hPa 0.3 mm 14.1°
2
39%
 06:35     19:50    Daglengte: 13:15 Donderdag 01 Sep
02:00
22°
1016.7 hPa 1.2 mm 14.9°
2
47%
08:00
23°
1016.7 hPa 0.2 mm 14.5°
2
32%
  CAPE Lifted Index Hail Supercell Tornado SRH 3km CL BTM PRES CL TOP PRES Swiss DWD icon SMHI TS
 06:17     20:16    Daglengte: 13:59 Vandaag
12:00 1707 J/kg -4.8 K 0 % 0 % 0 % 0 m²/s² 0 0 0.84 1
13:00 1822 J/kg -4.5 K 0 % 0 % 0 % 0 m²/s² 0 0 0.33 3
14:00 1862 J/kg -4.8 K 0 % 0 % 0 % 0 m²/s² 0 0 -1.71 3
15:00 1913 J/kg -5.6 K 0 % 0 % 0 % 0 m²/s² 0 0 -3.41 3
16:00 1886 J/kg -5.6 K 0 % 0 % 0 % 0 m²/s² 0 0 -4.4 3
17:00 1831 J/kg -5.3 K 0 % 0 % 0 % 0 m²/s² 0 0 -3.77 3
18:00 1480 J/kg -4.0 K 0 % 0 % 0 % 0 m²/s² 0 0 -2.59 3
19:00 989 J/kg -2.5 K 0 % 0 % 0 % 0 m²/s² 0 0 -1.87 3
20:00 1032 J/kg -2.2 K 0 % 0 % 0 % 0 m²/s² 0 0 -2.08 3
21:00 1330 J/kg -2.8 K 0 % 0 % 0 % 0 m²/s² 0 0 -1.87 3
22:00 1831 J/kg -4.7 K 0 % 0 % 0 % 0 m²/s² 0 0 -3.17 3
23:00 2042 J/kg -5.4 K 0 % 0 % 0 % 0 m²/s² 0 0 -3.51 3
 06:19     20:15    Daglengte: 13:56 Morgen
00:00 1872 J/kg -5.5 K 0 % 0 % 0 % 0 m²/s² 0 0 -4.03 3
01:00 1673 J/kg -5.3 K 0 % 0 % 0 % 0 m²/s² 0 0 -4.58 3
02:00 1589 J/kg -5.0 K 0 % 0 % 0 % 0 m²/s² 0 0 -4.37 2
03:00 1570 J/kg -5.1 K 0 % 0 % 0 % 0 m²/s² 0 0 -3.81 3
04:00 1105 J/kg -4.6 K 0 % 0 % 0 % 0 m²/s² 0 0 -2.77 3
05:00 765 J/kg -4.3 K 0 % 0 % 0 % 0 m²/s² 0 0 -2.71 3
06:00 268 J/kg -5.0 K 0 % 0 % 0 % 0 m²/s² 0 0 -3.47 80
07:00 0 J/kg -5.3 K 0 % 0 % 0 % 0 m²/s² 0 0 -4.01 3
08:00 57 J/kg -5.6 K 0 % 0 % 0 % 0 m²/s² 0 0 -3.95 80
09:00 840 J/kg -6.5 K 0 % 0 % 0 % 0 m²/s² 0 0 -4.85 80
10:00 1852 J/kg -6.1 K 0 % 0 % 0 % 0 m²/s² 0 0 -4.51 80
11:00 2837 J/kg -8.5 K 0 % 0 % 0 % 0 m²/s² 0 0 -6.85 80
12:00 2935 J/kg -8.0 K 0 % 0 % 0 % 0 m²/s² 0 0 -7.16 95
13:00 1634 J/kg -5.5 K 0 % 0 % 0 % 0 m²/s² 0 0 -5.05 63
14:00 37 J/kg -3.6 K 0 % 0 % 0 % 0 m²/s² 0 0 -2.82 95
15:00 260 J/kg -3.0 K 0 % 0 % 0 % 0 m²/s² 0 0 -2.25 95
16:00 414 J/kg -3.9 K 0 % 0 % 0 % 0 m²/s² 0 0 -3.81 80
17:00 163 J/kg -2.7 K 0 % 0 % 0 % 0 m²/s² 0 0 -1.71 80
18:00 286 J/kg -2.9 K 0 % 0 % 0 % 0 m²/s² 0 0 -1.82 80
19:00 275 J/kg -2.7 K 0 % 0 % 0 % 0 m²/s² 0 0 -2.07 80
20:00 0 J/kg -1.2 K 0 % 0 % 0 % 0 m²/s² 0 0 -0.66 81
21:00 0 J/kg -1.8 K 0 % 0 % 0 % 0 m²/s² 0 0 -0.72 61
22:00 0 J/kg -1.4 K 0 % 0 % 0 % 0 m²/s² 0 0 0.25 3
23:00 0 J/kg -1.6 K 0 % 0 % 0 % 0 m²/s² 0 0 -0.61 3
 06:20     20:13    Daglengte: 13:53 Vrijdag 19 Aug
00:00 0 J/kg -2.2 K 0 % 0 % 0 % 0 m²/s² 0 0 -0.85 3
01:00 0 J/kg -1.6 K 0 % 0 % 0 % 0 m²/s² 0 0 -0.79 3
02:00 0 J/kg -1.6 K 0 % 0 % 0 % 0 m²/s² 0 0 -1.24 80
03:00 22 J/kg -3.0 K 0 % 0 % 0 % 0 m²/s² 0 0 -2.79 95
04:00 1 J/kg -3.7 K 0 % 0 % 0 % 0 m²/s² 0 0 -1.57 80
05:00 0 J/kg -3.8 K 0 % 0 % 0 % 0 m²/s² 0 0 1.03 95
06:00 0 J/kg -4.6 K 0 % 0 % 0 % 0 m²/s² 0 0 -0.46 95
07:00 132 J/kg -5.2 K 0 % 0 % 0 % 0 m²/s² 0 0 -2.38 95
08:00 269 J/kg -4.6 K 0 % 0 % 0 % 0 m²/s² 0 0 -1.51 80
09:00 593 J/kg -3.8 K 0 % 0 % 0 % 0 m²/s² 0 0 -0.38 80
10:00 562 J/kg -3.5 K 0 % 0 % 0 % 0 m²/s² 0 0 -0.32 3
11:00 634 J/kg -3.5 K 0 % 0 % 0 % 0 m²/s² 0 0 -1.61 80
12:00 719 J/kg -3.4 K 0 % 0 % 0 % 0 m²/s² 0 0 -2.2 3
13:00 558 J/kg -2.8 K 0 % 0 % 0 % 0 m²/s² 0 0 -2.77 80
14:00 150 J/kg -1.9 K 0 % 0 % 0 % 0 m²/s² 0 0 -1.81 80
15:00 535 J/kg -2.7 K 0 % 0 % 0 % 0 m²/s² 0 0 -2.58 3
16:00 243 J/kg -1.1 K 0 % 0 % 0 % 0 m²/s² 0 0 -0.47 3
17:00 173 J/kg -0.7 K 0 % 0 % 0 % 0 m²/s² 0 0 -0.52 3
18:00 54 J/kg -0.2 K 0 % 0 % 0 % 0 m²/s² 0 0 0.34 3
19:00 0 J/kg 0.7 K 0 % 0 % 0 % 0 m²/s² 0 0 1.66 3
20:00 0 J/kg 0.4 K 0 % 0 % 0 % 0 m²/s² 0 0 1.66 3
21:00 0 J/kg 0.1 K 0 % 0 % 0 % 0 m²/s² 0 0 1.54 3
22:00 44 J/kg -0.8 K 0 % 0 % 0 % 0 m²/s² 0 0 0.4 3
23:00 0 J/kg -0.3 K 0 % 0 % 0 % 0 m²/s² 0 0 1.14 3
 06:21     20:11    Daglengte: 13:50 Zaterdag 20 Aug
00:00 0 J/kg 0.5 K 0 % 0 % 0 % 0 m²/s² 0 0 1.67 3
01:00 0 J/kg -0.1 K 0 % 0 % 0 % 0 m²/s² 0 0 1.28 2
02:00 0 J/kg -1.5 K 0 % 0 % 0 % 0 m²/s² 0 0 -0.06 1
03:00 0 J/kg 1.1 K 0 % 0 % 0 % 0 m²/s² 0 0 2.15 2
04:00 0 J/kg 2.1 K 0 % 0 % 0 % 0 m²/s² 0 0 3.21 2
05:00 0 J/kg 2.6 K 0 % 0 % 0 % 0 m²/s² 0 0 3.62 45
06:00 0 J/kg 3.3 K 0 % 0 % 0 % 0 m²/s² 0 0 4.32 45
07:00 0 J/kg 3.6 K 0 % 0 % 0 % 0 m²/s² 0 0 4.56 45
08:00 0 J/kg 4.2 K 0 % 0 % 0 % 0 m²/s² 0 0 5.07 45
09:00 2 J/kg 4.1 K 0 % 0 % 0 % 0 m²/s² 0 0 5.3
10:00 0 J/kg 3.7 K 0 % 0 % 0 % 0 m²/s² 0 0 5.29
11:00 0 J/kg 2.9 K 0 % 0 % 0 % 0 m²/s² 0 0 4.37
Temp Baro Wind Neerslag
  EWN Forecast EWN WRFDA DWD ICON FMI HIRLAM MET Norway GFSWXSIM
 06:17     20:16    Daglengte: 13:59 Vandaag
14:00 31.9° 1012.3 hPa 4.0 m/s 0.0 mm 31.0° 1012.1 hPa 3.0 m/s 0.0 mm 32.3° 1012.1 hPa 2.1 m/s -2.0 mm 31.9° 1012.4 hPa 5.3 m/s 0.0 mm 33.4° 1011.3 hPa 1.4 m/s
17:00 31.2° 1011.0 hPa 4.3 m/s 0.0 mm 31.3° 1010.7 hPa 5.0 m/s 0.0 mm 31.2° 1010.8 hPa 3.9 m/s 0.0 mm 31.2° 1011.0 hPa 4.9 m/s 0.0 mm 31.8° 1010.5 hPa 4.8 m/s
20:00 28.6° 1010.9 hPa 3.0 m/s 0.0 mm 28.0° 1010.5 hPa 4.2 m/s 0.0 mm 28.5° 1011.1 hPa 2.8 m/s 0.0 mm 28.0° 1010.7 hPa 3.6 m/s 0.0 mm 22.6° 1011.7 hPa 1.5 m/s
23:00 25.9° 1011.6 hPa 2.5 m/s 0.0 mm 24.3° 1011.4 hPa 4.2 m/s 0.0 mm 25.9° 1011.9 hPa 1.4 m/s 0.0 mm 25.4° 1011.4 hPa 3.1 m/s 0.0 mm 21.3° 1012.3 hPa 0.8 m/s
 06:19     20:15    Daglengte: 13:56 Morgen
02:00 24.5° 1011.3 hPa 3.1 m/s 0.0 mm 24.0° 1011.4 hPa 5.1 m/s 1.4 mm 23.8° 1012.0 hPa 1.8 m/s 0.0 mm 24.4° 1010.9 hPa 5.5 m/s 0.0 mm 20.7° 1011.4 hPa 2.1 m/s
05:00 23.9° 1010.5 hPa 3.2 m/s 0.0 mm 22.1° 1010.3 hPa 3.1 m/s 3.6 mm 23.8° 1010.7 hPa 2.7 m/s 0.0 mm 23.9° 1010.6 hPa 3.0 m/s 0.0 mm 19.9° 1010.5 hPa 2.3 m/s
08:00 24.3° 1010.9 hPa 2.6 m/s 0.0 mm 23.9° 1010.5 hPa 4.0 m/s 3.6 mm 23.2° 1012.3 hPa 2.3 m/s 2.3 mm 24.4° 1010.4 hPa 3.8 m/s 0.0 mm 21.6° 1011.6 hPa 0.5 m/s
11:00 25.8° 1010.8 hPa 4.1 m/s 0.6 mm 29.2° 1009.3 hPa 5.7 m/s 3.6 mm 23.0° 1011.5 hPa 3.9 m/s 1.3 mm 26.4° 1009.8 hPa 5.6 m/s 0.0 mm 27.4° 1012.1 hPa 0.5 m/s
14:00 25.9° 1010.5 hPa 4.8 m/s 3.4 mm 25.1° 1009.5 hPa 7.6 m/s 5.1 mm 22.3° 1011.7 hPa 4.0 m/s 5.8 mm 29.0° 1008.1 hPa 8.0 m/s 0.0 mm 30.0° 1010.7 hPa 1.1 m/s
17:00 24.1° 1009.4 hPa 4.1 m/s 2.3 mm 21.8° 1010.0 hPa 6.6 m/s 16.4 mm 22.6° 1010.4 hPa 3.2 m/s 3.1 mm 28.7° 1007.1 hPa 5.8 m/s 0.0 mm 25.6° 1010.0 hPa 0.6 m/s
20:00 22.9° 1008.4 hPa 3.6 m/s 3.2 mm 22.2° 1008.8 hPa 4.0 m/s 28.8 mm 21.9° 1009.7 hPa 1.8 m/s 4.6 mm 25.8° 1006.5 hPa 3.8 m/s 0.0 mm 24.5° 1009.4 hPa 4.3 m/s
23:00 22.3° 1008.7 hPa 2.2 m/s 0.0 mm 20.4° 1009.1 hPa 1.4 m/s 30.1 mm 21.4° 1008.7 hPa 2.2 m/s 0.4 mm 26.0° 1007.3 hPa 2.1 m/s 0.0 mm 19.7° 1008.5 hPa 2.5 m/s
 06:20     20:13    Daglengte: 13:53 Vrijdag 19 Aug
02:00 21.5° 1007.8 hPa 2.2 m/s 6.2 mm 21.5° 1007.6 hPa 3.9 m/s 33.2 mm 21.0° 1008.0 hPa 1.4 m/s 1.1 mm 24.7° 1006.2 hPa 2.2 m/s 0.0 mm 19.2° 1009.1 hPa 1.9 m/s
05:00 20.2° 1006.9 hPa 2.6 m/s 15.4 mm 19.6° 1006.5 hPa 2.4 m/s 35.5 mm 20.2° 1006.7 hPa 3.9 m/s 7.0 mm 18.9° 1008.2 hPa 1.4 m/s
08:00 20.0° 1008.4 hPa 2.8 m/s 14.9 mm 19.6° 1008.4 hPa 2.4 m/s 36.3 mm 20.1° 1007.8 hPa 2.9 m/s 14.8 mm 19.5° 1009.3 hPa 1.7 m/s
11:00 21.0° 1009.3 hPa 2.5 m/s 9.5 mm 22.0° 1009.4 hPa 1.7 m/s 38.8 mm 20.9° 1008.8 hPa 3.4 m/s 1.4 mm 22.5° 1009.9 hPa 1.1 m/s
14:00 22.3° 1009.5 hPa 2.4 m/s 14.0 mm 22.2° 1009.7 hPa 5.8 m/s 41.1 mm 22.3° 1009.0 hPa 2.3 m/s 0.5 mm 26.7° 1009.0 hPa 1.3 m/s
17:00 25.2° 1008.9 hPa 1.6 m/s 0.0 mm 27.2° 1009.0 hPa 2.1 m/s 42.4 mm 25.1° 1008.3 hPa 1.6 m/s 0.1 mm 26.4° 1008.4 hPa 2.6 m/s
20:00 24.0° 1008.8 hPa 1.3 m/s 0.0 mm 24.1° 1008.2 hPa 2.2 m/s 42.4 mm 24.0° 1008.7 hPa 1.3 m/s 0.0 mm 23.2° 1008.9 hPa 2.5 m/s
23:00 22.0° 1010.1 hPa 1.4 m/s 0.0 mm 21.9° 1009.8 hPa 2.7 m/s 42.4 mm 21.8° 1009.8 hPa 1.4 m/s 0.0 mm 20.2° 1010.3 hPa 2.2 m/s
 06:21     20:11    Daglengte: 13:50 Zaterdag 20 Aug
02:00 20.8° 1009.9 hPa 1.3 m/s 0.0 mm 20.5° 1010.3 hPa 2.6 m/s 42.4 mm 20.8° 1009.8 hPa 1.0 m/s 0.0 mm 18.9° 1011.1 hPa 2.0 m/s
05:00 20.0° 1010.4 hPa 1.1 m/s 0.0 mm 19.4° 1011.0 hPa 2.1 m/s 42.4 mm 20.1° 1010.2 hPa 0.8 m/s 0.0 mm 17.8° 1011.3 hPa 1.4 m/s
08:00 20.8° 1011.7 hPa 0.6 m/s 0.0 mm 22.9° 1012.4 hPa 0.7 m/s 42.4 mm 20.3° 1011.5 hPa 0.5 m/s 0.0 mm 19.9° 1012.2 hPa 1.1 m/s
11:00 28.0° 1012.5 hPa 0.7 m/s 42.4 mm 28.0° 1012.5 hPa 0.7 m/s 42.4 mm 26.9° 1012.9 hPa 0.8 m/s
14:00 31.4° 1012.0 hPa 3.1 m/s 42.4 mm 31.4° 1012.0 hPa 3.1 m/s 42.4 mm 31.2° 1012.6 hPa 1.5 m/s
17:00 31.7° 1011.7 hPa 2.5 m/s 19.6 mm 31.7° 1011.7 hPa 2.5 m/s 19.6 mm
20:00 25.1° 1012.1 hPa 2.5 m/s 19.6 mm 25.1° 1012.1 hPa 2.5 m/s 19.6 mm
23:00 22.2° 1013.3 hPa 1.1 m/s 19.6 mm 22.2° 1013.3 hPa 1.1 m/s 19.6 mm
 06:22     20:09    Daglengte: 13:47 Zondag 21 Aug
02:00 20.4° 1013.9 hPa 2.0 m/s 19.6 mm 20.4° 1013.9 hPa 2.0 m/s 19.6 mm
05:00 19.4° 1013.8 hPa 2.0 m/s 19.6 mm 19.4° 1013.8 hPa 2.0 m/s 19.6 mm
08:00 21.8° 1014.1 hPa 1.3 m/s 19.6 mm 21.8° 1014.1 hPa 1.3 m/s 19.6 mm
11:00 28.0° 1013.9 hPa 2.2 m/s 19.6 mm 28.0° 1013.9 hPa 2.2 m/s 19.6 mm
14:00 31.2° 1012.5 hPa 2.1 m/s 19.6 mm 31.2° 1012.5 hPa 2.1 m/s 19.6 mm
17:00 31.6° 1010.8 hPa 2.7 m/s 19.6 mm 31.6° 1010.8 hPa 2.7 m/s 19.6 mm
20:00 24.8° 1010.7 hPa 3.6 m/s 19.8 mm 24.8° 1010.7 hPa 3.6 m/s 19.8 mm
23:00 21.8° 1011.3 hPa 1.9 m/s 20.0 mm 21.8° 1011.3 hPa 1.9 m/s 20.0 mm
 06:23     20:08    Daglengte: 13:45 Maandag 22 Aug
02:00 19.4° 1011.4 hPa 2.9 m/s 20.4 mm 19.4° 1011.4 hPa 2.9 m/s 20.4 mm
05:00 18.6° 1011.8 hPa 2.8 m/s 20.9 mm 18.6° 1011.8 hPa 2.8 m/s 20.9 mm
08:00 20.2° 1012.7 hPa 2.3 m/s 21.1 mm 20.2° 1012.7 hPa 2.3 m/s 21.1 mm
11:00 24.9° 1012.9 hPa 3.2 m/s 21.1 mm 24.9° 1012.9 hPa 3.2 m/s 21.1 mm
14:00 28.4° 1012.5 hPa 4.3 m/s 21.2 mm 28.4° 1012.5 hPa 4.3 m/s 21.2 mm
17:00 28.7° 1011.3 hPa 2.6 m/s 21.2 mm 28.7° 1011.3 hPa 2.6 m/s 21.2 mm
20:00 24.5° 1011.4 hPa 1.5 m/s 21.2 mm 24.5° 1011.4 hPa 1.5 m/s 21.2 mm
23:00 21.7° 1012.3 hPa 2.0 m/s 21.2 mm 21.7° 1012.3 hPa 2.0 m/s 21.2 mm
 06:25     20:06    Daglengte: 13:41 Dinsdag 23 Aug
02:00 20.3° 1012.3 hPa 1.9 m/s 21.2 mm 20.3° 1012.3 hPa 1.9 m/s 21.2 mm
05:00 19.4° 1012.5 hPa 1.5 m/s 21.2 mm 19.4° 1012.5 hPa 1.5 m/s 21.2 mm
08:00 21.8° 1013.6 hPa 1.4 m/s 21.2 mm 21.8° 1013.6 hPa 1.4 m/s 21.2 mm
11:00 28.9° 1013.4 hPa 0.9 m/s 21.2 mm 28.9° 1013.4 hPa 0.9 m/s 21.2 mm
14:00 31.7° 1012.5 hPa 2.9 m/s 21.2 mm 31.7° 1012.5 hPa 2.9 m/s 21.2 mm
17:00 31.7° 1011.8 hPa 2.9 m/s 21.2 mm 31.7° 1011.8 hPa 2.9 m/s 21.2 mm
20:00 25.9° 1012.3 hPa 2.2 m/s 21.2 mm 25.9° 1012.3 hPa 2.2 m/s 21.2 mm
23:00 22.6° 1013.3 hPa 1.3 m/s 21.2 mm 22.6° 1013.3 hPa 1.3 m/s 21.2 mm
 06:26     20:04    Daglengte: 13:38 Woensdag 24 Aug
02:00 21.0° 1013.6 hPa 1.7 m/s 21.2 mm 21.0° 1013.6 hPa 1.7 m/s 21.2 mm
05:00 19.5° 1013.6 hPa 1.6 m/s 21.2 mm 19.5° 1013.6 hPa 1.6 m/s 21.2 mm
08:00 22.2° 1013.8 hPa 1.6 m/s 21.2 mm 22.2° 1013.8 hPa 1.6 m/s 21.2 mm
11:00 29.8° 1013.9 hPa 1.0 m/s 21.2 mm 29.8° 1013.9 hPa 1.0 m/s 21.2 mm
14:00 33.1° 1012.7 hPa 1.4 m/s 21.2 mm 33.1° 1012.7 hPa 1.4 m/s 21.2 mm
20:00 26.6° 1012.0 hPa 2.1 m/s 21.2 mm 26.6° 1012.0 hPa 2.1 m/s 21.2 mm
 06:27     20:02    Daglengte: 13:35 Donderdag 25 Aug
02:00 21.8° 1013.5 hPa 1.6 m/s 21.2 mm 21.8° 1013.5 hPa 1.6 m/s 21.2 mm
08:00 23.1° 1013.8 hPa 1.1 m/s 21.2 mm 23.1° 1013.8 hPa 1.1 m/s 21.2 mm
14:00 34.4° 1013.2 hPa 2.4 m/s 21.2 mm 34.4° 1013.2 hPa 2.4 m/s 21.2 mm
20:00 27.7° 1012.7 hPa 1.5 m/s 21.2 mm 27.7° 1012.7 hPa 1.5 m/s 21.2 mm
 06:28     20:01    Daglengte: 13:33 Vrijdag 26 Aug
02:00 22.6° 1014.7 hPa 2.0 m/s 21.2 mm 22.6° 1014.7 hPa 2.0 m/s 21.2 mm
08:00 24.0° 1015.4 hPa 1.0 m/s 21.2 mm 24.0° 1015.4 hPa 1.0 m/s 21.2 mm
14:00 35.8° 1014.1 hPa 1.2 m/s 21.2 mm 35.8° 1014.1 hPa 1.2 m/s 21.2 mm
20:00 29.0° 1013.4 hPa 3.0 m/s 21.2 mm 29.0° 1013.4 hPa 3.0 m/s 21.2 mm
 06:29     19:59    Daglengte: 13:30 Zaterdag 27 Aug
02:00 23.5° 1015.4 hPa 2.1 m/s 21.2 mm 23.5° 1015.4 hPa 2.1 m/s 21.2 mm
08:00 24.0° 1017.2 hPa 1.8 m/s 0.0 mm
14:00 34.2° 1016.0 hPa 2.0 m/s 0.0 mm
20:00 27.6° 1016.3 hPa 1.8 m/s 0.1 mm
 06:31     19:57    Daglengte: 13:26 Zondag 28 Aug
02:00 23.0° 1018.3 hPa 2.3 m/s 0.4 mm
08:00 23.8° 1018.6 hPa 1.6 m/s 0.2 mm
14:00 33.8° 1017.8 hPa 2.1 m/s 0.0 mm
20:00 27.2° 1017.6 hPa 2.3 m/s 0.2 mm
 06:32     19:55    Daglengte: 13:23 Maandag 29 Aug
02:00 22.6° 1019.3 hPa 2.2 m/s 0.7 mm
08:00 23.5° 1019.4 hPa 1.4 m/s 0.3 mm
14:00 33.8° 1018.2 hPa 1.8 m/s 0.0 mm
20:00 27.2° 1017.6 hPa 2.3 m/s 0.2 mm
 06:33     19:53    Daglengte: 13:20 Dinsdag 30 Aug
02:00 22.7° 1019.0 hPa 2.1 m/s 1.0 mm
08:00 23.4° 1018.8 hPa 1.5 m/s 0.3 mm
14:00 33.3° 1017.3 hPa 1.7 m/s 0.1 mm
20:00 26.9° 1016.5 hPa 2.1 m/s 0.2 mm
 06:34     19:52    Daglengte: 13:18 Woensdag 31 Aug
02:00 22.6° 1017.9 hPa 2.0 m/s 0.7 mm
08:00 23.0° 1017.4 hPa 1.5 m/s 0.5 mm
14:00 32.7° 1015.9 hPa 1.7 m/s 0.2 mm
20:00 26.3° 1015.3 hPa 2.0 m/s 0.3 mm
 06:35     19:50    Daglengte: 13:15 Donderdag 01 Sep
02:00 21.9° 1016.7 hPa 2.3 m/s 1.2 mm
08:00 22.6° 1016.7 hPa 1.6 m/s 0.2 mm
FMI Hirlam - 7.5 km EWN WRFDA - 12 km DWD ICON - 7 km GFS - 25 km Basiskaart






























































Updatetijd (Europe/Amsterdam) Resolutie Lengte Stap
FMI Hirlam 07:15, 13:15, 19:15, 01:15 7.5 km 49h 1h
EWN WRFDA 10:15, 16:15, 22:15, 04:15 12 km 73h 1h
DWD ICON 06:00, 12:00, 18:00, 00:00 7 km 75h 1h
GFS 08:15, 14:15, 20:15, 02:15 25 km 237h 3h
30+ mm
25-30 mm
20-25 mm
15-20 mm
10-15 mm
6-10 mm
4-6 mm
2-4 mm
1-2 mm
0.5-1 mm
0.2-0.5 mm
0.1-0.2 mm
30+ mm
25-30 mm
20-25 mm
15-20 mm
10-15 mm
6-10 mm
4-6 mm
2-4 mm
1-2 mm
0.5-1 mm
0.2-0.5 mm
0.1-0.2 mm
Sneeuwval
Natte sneeuw
Hagel
Vorst
30+ mm
25-30 mm
20-25 mm
15-20 mm
10-15 mm
6-10 mm
4-6 mm
2-4 mm
1-2 mm
0.5-1 mm
0.2-0.5 mm
0.1-0.2 mm
Sneeuwval
Natte sneeuw
Hagel
Vorst
Onweer
50 mm
40 mm
30 mm
26 mm
22 mm
18 mm
14 mm
10 mm
9 mm
8 mm
7 mm
6 mm
5 mm
4.5 mm
4 mm
3.5 mm
3 mm
2.5 mm
2 mm
1.5 mm
1 mm
0.8 mm
0.6 mm
0.4 mm
0.2 mm
0.05 mm
35°
30°
25°
20°
15°
10°
-5°
-10°
-15°
-20°
-25°
-30°